COSMOS 2221

Last updated on Thu Jul 03 2025 00:02:14 GMT+0000 (Coordinated Universal Time)

1 22236U 92080A 25183.40277016 .00001323 00000+0 11878-3 0 9996 2 22236 82.5045 158.5207 0013431 318.7782 41.2424 14.94928022743380
UTC large
Height (km)
Speed (km/s)
/
Latitude / Longitude
Inclination (degrees)
Orbital Period (minutes)
Azimuth
Elevation
Range (km)
Doppler Factor

Next 0 passes for location: London (51.5072 / 0.1276)

Sorry there are no passes over London.